OBJECT DB, 58570

Orbit data source: Space-Track

You're viewing an Uncataloged Satellite

Recently launched and/or uncataloged satellites may have evolving metadata. Metadata may include but not limited to: Owner, Maufacturer, Bus, Motor, and Mission.

OBJECT DB, 58570 is a satellite in SSO that was launched on Sat, 11 Nov 2023 UTC via an FALCON 9 launch vehicle from the Air Force Western Test Range (AFWTR). Unknown objects in Earth's orbit typically refer to objects detected orbiting the Earth but have not yet been identified or cataloged. These objects could be anything from previously untracked satellites, spent rocket stages, debris from satellite collisions, or even natural meteoroids temporarily captured by Earth's gravity.

Loading next visibility...
Identifier
58570, 2023-174DB
Orbit
SSO
Country
Flag of TBDTBD
Related business
None
Manufacturer
Unknown
Mission
Commercial Communications
Bus & Motor
Unknown
Mass
Unknown
Launch date (UTC)
2023-11-11 (3 years ago)
Launch vehicle
FALCON 9
Launch site
Air Force Western Test Range (AFWTR)
Object type
Unknown
Shape & HBR
Box, 0.1 m
Radar Cross Section
0.080 m², Medium (>0.1 m² and < 1m²)

Expand to show TLE details & history
Last TLE update: 2 days ago

TLE from 2 days ago
0 OBJECT DB
1 58570U 23174DB  26171.86018369  .00134521  00000-0  72274-3 0  9991
2 58570  97.3726 269.0481 0002072 186.3680 173.7562 15.79865169146744
Epoch: 2026-06-20T20:38Z
TLE epoch observation values (Epoch: 2026-06-20T20:38:39.870Z)
Latitude
Longitude
50.31323°
Altitude
335.377 km
Speed
7.707 km/s
True Right ascension
17h 56m 11s
True Declination
0° 00' 00"
Sunlit
Object was in full shadow at epoch
Visualization orbit readout
Latitude
Unknown
Longitude
Unknown
Altitude
Unknown
Speed
Unknown
Apparent Right ascension
Unknown
Apparent Declination
Unknown
Sunlit
N/A
Visualization observer readout
Local Sidereal Time
21:42:37
Azimuth
Unknown
Elevation
Unknown
Doppler factor
Unknown
Orbital elements
Apogee altitude
329.097 km
Perigee altitude
326.318 km
Semi-major axis
6,705.844 km
Eccentricity
0.00021
Inclination
97.3726°
RAAN
269.0481°
Arg. of periapsis
186.368°
True anomaly
173.75878°
Mean anomaly
173.7562°
Eccentric anomaly
173.75749°
Mean motion
3.95242 °/min
Orbital period
91.08 mins
BSTAR
0.00072274
Loading maneuver chart data...
Computing Atmospheric mass density...

Documentation

Showing up to 5 results
|